Time,TemperatureF,DewpointF,PressureIn,WindDirection,WindDirectionDegrees,WindSpeedMPH,WindSpeedGustMPH,Humidity,HourlyPrecipIn,Conditions,Clouds,dailyrainin,SoftwareType,DateUTC
2013-01-27 00:01:00,20.5,11.0,30.09,SSE,161,7.0,7.0,66,0.00,,SKC,0.00,VWS V14.01,2013-01-27 06:01:00,
2013-01-27 00:06:00,20.5,11.0,30.09,SSE,165,7.0,11.0,66,0.00,,SKC,0.00,VWS V14.01,2013-01-27 06:06:00,
2013-01-27 00:11:00,20.5,11.0,30.09,SSE,165,7.0,7.0,66,0.00,,SKC,0.00,VWS V14.01,2013-01-27 06:11:00,
2013-01-27 00:16:00,20.6,10.7,30.08,SE,136,6.0,10.0,65,0.00,,SKC,0.00,VWS V14.01,2013-01-27 06:16:00,
2013-01-27 00:21:00,20.5,11.0,30.08,SSE,160,6.0,8.0,66,0.00,,SKC,0.00,VWS V14.01,2013-01-27 06:21:00,
2013-01-27 00:26:00,20.2,10.7,30.08,SSE,151,5.0,11.0,66,0.00,,SKC,0.00,VWS V14.01,2013-01-27 06:26:00,
2013-01-27 00:31:00,20.2,10.7,30.07,SSE,160,6.0,10.0,66,0.00,,SKC,0.00,VWS V14.01,2013-01-27 06:31:00,
2013-01-27 00:36:00,20.2,10.7,30.07,SSE,152,6.0,10.0,66,0.00,,SKC,0.00,VWS V14.01,2013-01-27 06:36:00,
2013-01-27 00:41:00,20.0,10.8,30.07,SSE,157,6.0,7.0,67,0.00,,SKC,0.00,VWS V14.01,2013-01-27 06:41:00,
2013-01-27 00:46:00,20.0,10.8,30.07,SSE,155,4.0,10.0,67,0.00,,SKC,0.00,VWS V14.01,2013-01-27 06:46:00,
2013-01-27 00:51:00,19.9,10.7,30.07,SSE,150,7.0,7.0,67,0.00,,SKC,0.00,VWS V14.01,2013-01-27 06:51:00,
2013-01-27 00:56:00,19.7,10.5,30.07,SSE,150,5.0,7.0,67,0.00,,SKC,0.00,VWS V14.01,2013-01-27 06:56:00,
2013-01-27 01:01:00,19.5,10.7,30.07,SE,126,4.0,6.0,68,0.00,,SKC,0.00,VWS V14.01,2013-01-27 07:01:00,
2013-01-27 01:06:00,19.7,10.5,30.07,SE,143,3.0,8.0,67,0.00,,SKC,0.00,VWS V14.01,2013-01-27 07:06:00,
2013-01-27 01:13:00,19.9,10.7,30.07,SSE,151,7.0,8.0,67,0.00,,SKC,0.00,VWS V14.01,2013-01-27 07:13:00,
2013-01-27 01:18:00,19.9,10.7,30.06,SSE,161,7.0,8.0,67,0.00,,SKC,0.00,VWS V14.01,2013-01-27 07:18:00,
2013-01-27 01:23:00,19.9,11.1,30.06,SSE,162,7.0,10.0,68,0.00,,SKC,0.00,VWS V14.01,2013-01-27 07:23:00,
2013-01-27 01:28:00,19.9,10.7,30.06,SE,144,3.0,10.0,67,0.00,,SKC,0.00,VWS V14.01,2013-01-27 07:28:00,
2013-01-27 01:33:00,19.9,11.1,30.06,SE,143,5.0,7.0,68,0.00,,SKC,0.00,VWS V14.01,2013-01-27 07:33:00,
2013-01-27 01:38:00,20.0,10.8,30.06,SSE,155,7.0,8.0,67,0.00,,SKC,0.00,VWS V14.01,2013-01-27 07:38:00,
2013-01-27 01:43:00,20.2,11.0,30.06,SE,141,5.0,8.0,67,0.00,,SKC,0.00,VWS V14.01,2013-01-27 07:43:00,
2013-01-27 01:48:00,20.3,11.1,30.06,SSE,168,7.0,8.0,67,0.00,,SKC,0.00,VWS V14.01,2013-01-27 07:48:00,
2013-01-27 01:53:00,20.3,11.1,30.06,SSE,147,6.0,6.0,67,0.00,,SKC,0.00,VWS V14.01,2013-01-27 07:53:00,
2013-01-27 01:58:00,20.3,11.1,30.06,SE,131,5.0,10.0,67,0.00,,SKC,0.00,VWS V14.01,2013-01-27 07:58:00,
2013-01-27 02:03:00,20.5,11.3,30.06,SE,127,1.0,6.0,67,0.00,,SKC,0.00,VWS V14.01,2013-01-27 08:03:00,
2013-01-27 02:08:00,20.5,11.3,30.06,SE,144,6.0,8.0,67,0.00,,SKC,0.00,VWS V14.01,2013-01-27 08:08:00,
2013-01-27 02:13:00,20.5,11.3,30.06,SE,126,4.0,7.0,67,0.00,,SKC,0.00,VWS V14.01,2013-01-27 08:13:00,
2013-01-27 02:18:00,20.6,11.4,30.05,SSE,147,6.0,9.0,67,0.00,,SKC,0.00,VWS V14.01,2013-01-27 08:18:00,
2013-01-27 02:23:00,20.6,11.4,30.05,SE,137,5.0,7.0,67,0.00,,SKC,0.00,VWS V14.01,2013-01-27 08:23:00,
2013-01-27 02:28:00,20.6,11.4,30.05,SE,143,7.0,8.0,67,0.00,,SKC,0.00,VWS V14.01,2013-01-27 08:28:00,
2013-01-27 02:33:00,20.8,11.6,30.05,SE,127,4.0,7.0,67,0.00,,SKC,0.00,VWS V14.01,2013-01-27 08:33:00,
2013-01-27 02:38:00,21.0,11.8,30.05,ESE,120,6.0,8.0,67,0.00,,SKC,0.00,VWS V14.01,2013-01-27 08:38:00,
2013-01-27 02:43:00,21.1,11.9,30.05,SSE,147,5.0,8.0,67,0.00,,SKC,0.00,VWS V14.01,2013-01-27 08:43:00,
2013-01-27 02:48:00,21.1,11.9,30.05,SE,128,6.0,8.0,67,0.00,,SKC,0.00,VWS V14.01,2013-01-27 08:48:00,
2013-01-27 02:53:00,21.3,12.1,30.05,SSE,148,5.0,7.0,67,0.00,,SKC,0.00,VWS V14.01,2013-01-27 08:53:00,
2013-01-27 02:58:00,21.4,12.2,30.05,SE,143,7.0,8.0,67,0.00,,SKC,0.00,VWS V14.01,2013-01-27 08:58:00,
2013-01-27 03:03:00,21.4,12.2,30.04,SE,134,7.0,7.0,67,0.00,,SKC,0.00,VWS V14.01,2013-01-27 09:03:00,
2013-01-27 03:07:00,21.6,12.4,30.04,SE,140,4.0,8.0,67,0.00,,SKC,0.00,VWS V14.01,2013-01-27 09:07:00,
2013-01-27 03:12:00,21.6,12.4,30.04,ESE,117,6.0,7.0,67,0.00,,SKC,0.00,VWS V14.01,2013-01-27 09:12:00,
2013-01-27 03:17:00,21.6,12.4,30.03,SE,128,1.0,9.0,67,0.00,,SKC,0.00,VWS V14.01,2013-01-27 09:17:00,
2013-01-27 03:22:00,21.6,12.4,30.03,SE,127,1.0,7.0,67,0.00,,SKC,0.00,VWS V14.01,2013-01-27 09:22:00,
2013-01-27 03:27:00,21.6,12.4,30.03,SE,137,3.0,7.0,67,0.00,,SKC,0.00,VWS V14.01,2013-01-27 09:27:00,
2013-01-27 03:32:00,21.4,12.2,30.02,SE,128,3.0,7.0,67,0.00,,SKC,0.00,VWS V14.01,2013-01-27 09:32:00,
2013-01-27 03:37:00,21.6,12.4,30.02,SE,136,5.0,11.0,67,0.00,,SKC,0.00,VWS V14.01,2013-01-27 09:37:00,
2013-01-27 03:42:00,21.6,12.4,30.02,SE,134,3.0,8.0,67,0.00,,SKC,0.00,VWS V14.01,2013-01-27 09:42:00,
2013-01-27 03:47:00,21.6,12.4,30.02,SE,127,2.0,8.0,67,0.00,,SKC,0.00,VWS V14.01,2013-01-27 09:47:00,
2013-01-27 03:52:00,21.6,12.4,30.02,SE,131,3.0,8.0,67,0.00,,SKC,0.00,VWS V14.01,2013-01-27 09:52:00,
2013-01-27 03:57:00,21.6,12.7,30.02,East,96,6.0,8.0,68,0.00,,SKC,0.00,VWS V14.01,2013-01-27 09:57:00,
2013-01-27 04:02:00,21.6,12.7,30.01,SE,124,1.0,7.0,68,0.00,,SKC,0.00,VWS V14.01,2013-01-27 10:02:00,
2013-01-27 04:07:00,21.8,12.9,30.01,ESE,119,4.0,8.0,68,0.00,,SKC,0.00,VWS V14.01,2013-01-27 10:07:00,
2013-01-27 04:12:00,21.9,13.0,30.01,ESE,117,3.0,7.0,68,0.00,,SKC,0.00,VWS V14.01,2013-01-27 10:12:00,
2013-01-27 04:17:00,22.1,12.8,30.00,ESE,102,0.0,7.0,67,0.00,,SKC,0.00,VWS V14.01,2013-01-27 10:17:00,
2013-01-27 04:22:00,21.6,12.7,30.00,East,88,1.0,5.0,68,0.00,,SKC,0.00,VWS V14.01,2013-01-27 10:22:00,
2013-01-27 04:27:00,20.3,12.1,30.00,East,80,0.0,6.0,70,0.00,,SKC,0.00,VWS V14.01,2013-01-27 10:27:00,
2013-01-27 04:32:00,19.4,11.9,30.00,East,97,2.0,3.0,72,0.00,,SKC,0.00,VWS V14.01,2013-01-27 10:32:00,
2013-01-27 04:37:00,18.9,11.4,30.00,ENE,69,2.0,6.0,72,0.00,,SKC,0.00,VWS V14.01,2013-01-27 10:37:00,
2013-01-27 04:42:00,18.4,11.5,30.00,East,89,1.0,2.0,74,0.00,,SKC,0.00,VWS V14.01,2013-01-27 10:42:00,
2013-01-27 04:47:00,19.1,11.9,30.00,ESE,107,2.0,7.0,73,0.00,,SKC,0.00,VWS V14.01,2013-01-27 10:47:00,
2013-01-27 04:52:00,20.0,12.4,30.00,East,80,2.0,7.0,72,0.00,,SKC,0.00,VWS V14.01,2013-01-27 10:52:00,
2013-01-27 04:57:00,20.6,12.7,30.00,SE,133,1.0,7.0,71,0.00,,SKC,0.00,VWS V14.01,2013-01-27 10:57:00,
2013-01-27 05:02:00,21.0,12.8,29.99,ESE,102,5.0,5.0,70,0.00,,SKC,0.00,VWS V14.01,2013-01-27 11:02:00,
2013-01-27 05:07:00,21.1,12.9,29.99,ESE,103,2.0,6.0,70,0.00,,SKC,0.00,VWS V14.01,2013-01-27 11:07:00,
2013-01-27 05:12:00,21.0,12.8,29.99,East,100,2.0,3.0,70,0.00,,SKC,0.00,VWS V14.01,2013-01-27 11:12:00,
2013-01-27 05:17:00,21.0,12.8,29.99,East,92,4.0,6.0,70,0.00,,SKC,0.00,VWS V14.01,2013-01-27 11:17:00,
2013-01-27 05:22:00,21.1,12.9,29.99,ESE,113,2.0,5.0,70,0.00,,SKC,0.00,VWS V14.01,2013-01-27 11:22:00,
2013-01-27 05:27:00,21.1,12.9,29.99,ESE,119,4.0,5.0,70,0.00,,SKC,0.00,VWS V14.01,2013-01-27 11:27:00,
2013-01-27 05:32:00,21.1,12.9,29.99,SE,144,7.0,7.0,70,0.00,,SKC,0.00,VWS V14.01,2013-01-27 11:32:00,
2013-01-27 05:37:00,21.3,13.1,29.99,SE,133,3.0,7.0,70,0.00,,SKC,0.00,VWS V14.01,2013-01-27 11:37:00,
2013-01-27 05:42:00,21.6,13.3,29.99,SE,133,6.0,7.0,70,0.00,,SKC,0.00,VWS V14.01,2013-01-27 11:42:00,
2013-01-27 05:47:00,22.1,13.5,29.98,SE,126,7.0,7.0,69,0.00,,SKC,0.00,VWS V14.01,2013-01-27 11:47:00,
2013-01-27 05:52:00,22.4,13.4,29.98,ESE,107,5.0,8.0,68,0.00,,SKC,0.00,VWS V14.01,2013-01-27 11:52:00,
2013-01-27 05:57:00,22.5,13.6,29.98,SE,136,6.0,10.0,68,0.00,,SKC,0.00,VWS V14.01,2013-01-27 11:57:00,
2013-01-27 06:02:00,22.5,13.6,29.98,SE,136,6.0,6.0,68,0.00,,SKC,0.00,VWS V14.01,2013-01-27 12:02:00,
2013-01-27 06:07:00,22.5,13.6,29.98,SSE,151,6.0,9.0,68,0.00,,SKC,0.00,VWS V14.01,2013-01-27 12:07:00,
2013-01-27 06:12:00,22.5,13.6,29.98,ESE,117,2.0,5.0,68,0.00,,SKC,0.00,VWS V14.01,2013-01-27 12:12:00,
2013-01-27 06:17:00,22.7,13.7,29.98,SE,137,3.0,9.0,68,0.00,,SKC,0.00,VWS V14.01,2013-01-27 12:17:00,
2013-01-27 06:22:00,22.7,13.7,29.98,SE,124,3.0,8.0,68,0.00,,SKC,0.00,VWS V14.01,2013-01-27 12:22:00,
2013-01-27 06:27:00,22.7,13.7,29.98,SE,138,6.0,8.0,68,0.00,,SKC,0.00,VWS V14.01,2013-01-27 12:27:00,
2013-01-27 06:32:00,22.9,13.9,29.97,SE,127,6.0,9.0,68,0.00,,SKC,0.00,VWS V14.01,2013-01-27 12:32:00,
2013-01-27 06:37:00,22.9,13.9,29.97,ESE,114,0.0,9.0,68,0.00,,SKC,0.00,VWS V14.01,2013-01-27 12:37:00,
2013-01-27 06:42:00,23.0,14.0,29.97,SE,124,5.0,6.0,68,0.00,,SKC,0.00,VWS V14.01,2013-01-27 12:42:00,
2013-01-27 06:47:00,23.2,13.9,29.97,SE,138,4.0,7.0,67,0.00,,SKC,0.00,VWS V14.01,2013-01-27 12:47:00,
2013-01-27 06:52:00,23.0,14.0,29.97,SE,127,1.0,7.0,68,0.00,,SKC,0.00,VWS V14.01,2013-01-27 12:52:00,
2013-01-27 06:57:00,22.7,13.7,29.97,ESE,121,0.0,7.0,68,0.00,,SKC,0.00,VWS V14.01,2013-01-27 12:57:00,
2013-01-27 07:02:00,22.7,14.1,29.97,ESE,123,3.0,7.0,69,0.00,,SKC,0.00,VWS V14.01,2013-01-27 13:02:00,
2013-01-27 07:07:00,22.9,13.9,29.97,ESE,112,2.0,8.0,68,0.00,,SKC,0.00,VWS V14.01,2013-01-27 13:07:00,
2013-01-27 07:12:00,23.0,14.0,29.97,ESE,114,3.0,6.0,68,0.00,,SKC,0.00,VWS V14.01,2013-01-27 13:12:00,
2013-01-27 07:17:00,23.0,14.0,29.97,SSE,150,6.0,9.0,68,0.00,,SKC,0.00,VWS V14.01,2013-01-27 13:17:00,
2013-01-27 07:22:00,22.9,14.3,29.97,SE,141,5.0,6.0,69,0.00,,SKC,0.00,VWS V14.01,2013-01-27 13:22:00,
2013-01-27 07:27:00,22.7,14.1,29.97,SE,133,3.0,10.0,69,0.00,,SKC,0.00,VWS V14.01,2013-01-27 13:27:00,
2013-01-27 07:32:00,22.5,13.9,29.97,ESE,123,3.0,8.0,69,0.00,,SKC,0.00,VWS V14.01,2013-01-27 13:32:00,
2013-01-27 07:37:00,22.7,14.1,29.97,SE,128,6.0,8.0,69,0.00,,SKC,0.00,VWS V14.01,2013-01-27 13:37:00,
2013-01-27 07:42:00,22.7,14.1,29.97,SE,137,7.0,8.0,69,0.00,,SKC,0.00,VWS V14.01,2013-01-27 13:42:00,
2013-01-27 07:47:00,22.5,13.9,29.96,SE,144,5.0,10.0,69,0.00,,SKC,0.00,VWS V14.01,2013-01-27 13:47:00,
2013-01-27 07:52:00,22.5,13.9,29.96,SE,137,7.0,10.0,69,0.00,,SKC,0.00,VWS V14.01,2013-01-27 13:52:00,
2013-01-27 07:57:00,22.5,13.9,29.96,SE,137,2.0,12.0,69,0.00,,SKC,0.00,VWS V14.01,2013-01-27 13:57:00,
2013-01-27 08:02:00,22.4,14.1,29.96,SE,130,6.0,7.0,70,0.00,,SKC,0.00,VWS V14.01,2013-01-27 14:02:00,
2013-01-27 08:07:00,22.5,14.2,29.96,SE,143,7.0,7.0,70,0.00,,SKC,0.00,VWS V14.01,2013-01-27 14:07:00,
2013-01-27 08:12:00,22.7,14.4,29.96,SSE,151,6.0,7.0,70,0.00,,SKC,0.00,VWS V14.01,2013-01-27 14:12:00,
2013-01-27 08:17:00,22.7,14.4,29.95,SE,138,5.0,7.0,70,0.00,,SKC,0.00,VWS V14.01,2013-01-27 14:17:00,
2013-01-27 08:22:00,22.9,14.6,29.95,SSE,164,7.0,8.0,70,0.00,,SKC,0.00,VWS V14.01,2013-01-27 14:22:00,
2013-01-27 08:27:00,22.9,14.6,29.95,SE,143,6.0,9.0,70,0.00,,SKC,0.00,VWS V14.01,2013-01-27 14:27:00,
2013-01-27 08:32:00,23.0,14.7,29.95,East,100,3.0,6.0,70,0.00,,SKC,0.00,VWS V14.01,2013-01-27 14:32:00,
2013-01-27 08:37:00,23.3,15.0,29.95,ESE,121,3.0,7.0,70,0.00,,SKC,0.00,VWS V14.01,2013-01-27 14:37:00,
2013-01-27 08:42:00,23.6,15.3,29.95,SE,127,3.0,5.0,70,0.00,,SKC,0.00,VWS V14.01,2013-01-27 14:42:00,
2013-01-27 08:47:00,23.8,15.5,29.95,SE,145,5.0,8.0,70,0.00,,SKC,0.00,VWS V14.01,2013-01-27 14:47:00,
2013-01-27 08:52:00,23.8,15.1,29.95,SE,138,2.0,8.0,69,0.00,,SKC,0.00,VWS V14.01,2013-01-27 14:52:00,
2013-01-27 08:57:00,23.9,15.6,29.95,SE,134,3.0,8.0,70,0.00,,SKC,0.00,VWS V14.01,2013-01-27 14:57:00,
2013-01-27 09:02:00,24.1,15.8,29.94,ESE,121,3.0,6.0,70,0.00,,SKC,0.00,VWS V14.01,2013-01-27 15:02:00,
2013-01-27 09:07:00,24.4,16.0,29.94,ESE,110,5.0,7.0,70,0.00,,SKC,0.00,VWS V14.01,2013-01-27 15:07:00,
2013-01-27 09:12:00,24.7,16.3,29.94,SE,136,4.0,6.0,70,0.00,,SKC,0.00,VWS V14.01,2013-01-27 15:12:00,
2013-01-27 09:17:00,24.8,16.1,29.94,SSE,150,7.0,8.0,69,0.00,,SKC,0.00,VWS V14.01,2013-01-27 15:17:00,
2013-01-27 09:22:00,24.7,16.0,29.94,SE,143,6.0,10.0,69,0.00,,SKC,0.00,VWS V14.01,2013-01-27 15:22:00,
2013-01-27 09:27:00,24.5,16.1,29.94,SE,131,4.0,10.0,70,0.00,,SKC,0.00,VWS V14.01,2013-01-27 15:27:00,
2013-01-27 09:32:00,24.7,16.3,29.93,SE,127,2.0,8.0,70,0.00,,SKC,0.00,VWS V14.01,2013-01-27 15:32:00,
2013-01-27 09:37:00,24.8,16.4,29.93,SE,138,1.0,10.0,70,0.00,,SKC,0.00,VWS V14.01,2013-01-27 15:37:00,
2013-01-27 09:42:00,25.0,16.3,29.93,SE,138,2.0,10.0,69,0.00,,SKC,0.00,VWS V14.01,2013-01-27 15:42:00,
2013-01-27 09:47:00,25.1,16.7,29.93,SE,126,0.0,10.0,70,0.00,,SKC,0.00,VWS V14.01,2013-01-27 15:47:00,
2013-01-27 09:52:00,25.4,17.0,29.93,ESE,114,3.0,5.0,70,0.00,,SKC,0.00,VWS V14.01,2013-01-27 15:52:00,
2013-01-27 09:57:00,25.6,17.2,29.93,ESE,114,7.0,7.0,70,0.00,,SKC,0.00,VWS V14.01,2013-01-27 15:57:00,
2013-01-27 10:01:00,25.8,17.4,29.92,ESE,116,4.0,8.0,70,0.00,,SKC,0.00,VWS V14.01,2013-01-27 16:01:00,
2013-01-27 10:06:00,26.1,17.3,29.92,SE,128,6.0,12.0,69,0.00,,SKC,0.00,VWS V14.01,2013-01-27 16:06:00,
2013-01-27 10:11:00,26.4,17.6,29.92,SSE,155,9.0,9.0,69,0.00,,SKC,0.00,VWS V14.01,2013-01-27 16:11:00,
2013-01-27 10:16:00,26.4,17.6,29.92,SSE,148,4.0,9.0,69,0.00,,SKC,0.00,VWS V14.01,2013-01-27 16:16:00,
2013-01-27 10:21:00,26.4,18.0,29.92,SE,143,6.0,8.0,70,0.00,,SKC,0.00,VWS V14.01,2013-01-27 16:21:00,
2013-01-27 10:26:00,26.4,18.3,29.92,SE,128,6.0,8.0,71,0.00,,SKC,0.00,VWS V14.01,2013-01-27 16:26:00,
2013-01-27 10:31:00,26.4,18.3,29.92,SSE,154,7.0,7.0,71,0.00,,SKC,0.00,VWS V14.01,2013-01-27 16:31:00,
2013-01-27 10:36:00,26.4,18.3,29.92,SSE,147,7.0,9.0,71,0.00,,SKC,0.00,VWS V14.01,2013-01-27 16:36:00,
2013-01-27 10:41:00,26.6,18.8,29.92,SSE,155,7.0,8.0,72,0.00,,SKC,0.00,VWS V14.01,2013-01-27 16:41:00,
2013-01-27 10:46:00,27.0,18.9,29.92,SE,144,4.0,8.0,71,0.00,,SKC,0.00,VWS V14.01,2013-01-27 16:46:00,
2013-01-27 10:51:00,27.2,19.1,29.92,SSE,154,5.0,7.0,71,0.00,,SKC,0.00,VWS V14.01,2013-01-27 16:51:00,
2013-01-27 10:56:00,27.3,19.5,29.92,SE,128,5.0,8.0,72,0.00,,SKC,0.00,VWS V14.01,2013-01-27 16:56:00,
2013-01-27 11:01:00,27.6,19.8,29.92,SSE,162,10.0,10.0,72,0.00,,SKC,0.00,VWS V14.01,2013-01-27 17:01:00,
2013-01-27 11:06:00,27.9,20.1,29.92,SE,144,5.0,13.0,72,0.00,,SKC,0.00,VWS V14.01,2013-01-27 17:06:00,
2013-01-27 11:11:00,28.4,20.5,29.92,SSE,155,6.0,8.0,72,0.00,,SKC,0.00,VWS V14.01,2013-01-27 17:11:00,
2013-01-27 11:16:00,28.8,20.6,29.91,SSE,164,7.0,10.0,71,0.00,,SKC,0.00,VWS V14.01,2013-01-27 17:16:00,
2013-01-27 11:21:00,29.4,20.5,29.91,SSE,150,8.0,13.0,69,0.00,,SKC,0.00,VWS V14.01,2013-01-27 17:21:00,
2013-01-27 11:26:00,29.7,20.8,29.91,SSE,158,10.0,13.0,69,0.00,,SKC,0.00,VWS V14.01,2013-01-27 17:26:00,
2013-01-27 11:31:00,29.8,21.2,29.91,SSE,154,9.0,12.0,70,0.00,,SKC,0.00,VWS V14.01,2013-01-27 17:31:00,
2013-01-27 11:36:00,30.0,21.1,29.91,SSE,164,8.0,12.0,69,0.00,,SKC,0.00,VWS V14.01,2013-01-27 17:36:00,
2013-01-27 11:41:00,30.1,21.5,29.91,SSE,155,7.0,10.0,70,0.00,,SKC,0.00,VWS V14.01,2013-01-27 17:41:00,
2013-01-27 11:46:00,30.1,21.5,29.90,SSE,155,7.0,11.0,70,0.00,,SKC,0.00,VWS V14.01,2013-01-27 17:46:00,
2013-01-27 11:51:00,30.1,21.5,29.90,SSE,147,6.0,8.0,70,0.00,,SKC,0.00,VWS V14.01,2013-01-27 17:51:00,
2013-01-27 11:56:00,30.1,21.5,29.90,SSE,152,6.0,8.0,70,0.00,,SKC,0.00,VWS V14.01,2013-01-27 17:56:00,
2013-01-27 12:01:00,30.1,21.9,29.90,SE,145,3.0,8.0,71,0.00,,SKC,0.00,VWS V14.01,2013-01-27 18:01:00,
2013-01-27 12:06:00,30.1,21.9,29.90,SSE,150,8.0,12.0,71,0.00,,SKC,0.00,VWS V14.01,2013-01-27 18:06:00,
2013-01-27 12:11:00,30.1,22.2,29.90,SSE,147,7.0,8.0,72,0.00,,SKC,0.00,VWS V14.01,2013-01-27 18:11:00,
2013-01-27 12:16:00,30.1,22.2,29.89,SSE,165,9.0,12.0,72,0.00,,SKC,0.00,VWS V14.01,2013-01-27 18:16:00,
2013-01-27 12:21:00,30.1,22.2,29.89,South,169,11.0,16.0,72,0.00,,SKC,0.00,VWS V14.01,2013-01-27 18:21:00,
2013-01-27 12:26:00,30.0,22.4,29.89,SSE,164,9.0,16.0,73,0.00,,SKC,0.00,VWS V14.01,2013-01-27 18:26:00,
2013-01-27 12:31:00,30.0,22.7,29.89,SSE,155,12.0,12.0,74,0.00,,SKC,0.00,VWS V14.01,2013-01-27 18:31:00,
2013-01-27 13:50:00,30.3,26.1,29.85,SSE,158,6.0,10.0,84,0.00,,SKC,0.00,VWS V14.01,2013-01-27 19:50:00,
2013-01-27 14:03:00,30.3,26.1,29.85,SSE,158,6.0,10.0,84,0.00,,SKC,0.00,VWS V14.01,2013-01-27 20:03:00,
2013-01-27 14:08:00,30.4,25.9,29.84,ESE,121,3.0,7.0,83,0.00,,SKC,0.00,VWS V14.01,2013-01-27 20:08:00,
2013-01-27 14:13:00,30.3,26.1,29.84,SSE,147,5.0,6.0,84,0.00,,SKC,0.00,VWS V14.01,2013-01-27 20:13:00,
2013-01-27 14:18:00,30.3,26.1,29.84,SE,145,6.0,10.0,84,0.00,,SKC,0.00,VWS V14.01,2013-01-27 20:18:00,
2013-01-27 14:23:00,30.3,26.1,29.84,SSE,154,6.0,9.0,84,0.00,,SKC,0.00,VWS V14.01,2013-01-27 20:23:00,
2013-01-27 14:28:00,30.4,26.4,29.84,SE,144,6.0,9.0,85,0.00,,SKC,0.00,VWS V14.01,2013-01-27 20:28:00,
2013-01-27 14:33:00,30.4,26.7,29.83,SE,145,6.0,8.0,86,0.01,,SKC,0.01,VWS V14.01,2013-01-27 20:33:00,
2013-01-27 14:38:00,30.4,27.0,29.83,SE,136,6.0,10.0,87,0.01,,SKC,0.01,VWS V14.01,2013-01-27 20:38:00,
2013-01-27 14:43:00,30.4,27.3,29.83,SE,130,2.0,10.0,88,0.01,,SKC,0.01,VWS V14.01,2013-01-27 20:43:00,
2013-01-27 14:48:00,30.4,27.3,29.82,South,169,10.0,10.0,88,0.01,,SKC,0.01,VWS V14.01,2013-01-27 20:48:00,
2013-01-27 14:53:00,30.4,27.5,29.82,SE,127,7.0,12.0,89,0.01,,SKC,0.01,VWS V14.01,2013-01-27 20:53:00,
2013-01-27 14:58:00,30.4,27.8,29.82,SSE,151,6.0,12.0,90,0.01,,SKC,0.01,VWS V14.01,2013-01-27 20:58:00,
2013-01-27 15:03:00,30.4,27.8,29.83,ESE,121,5.0,8.0,90,0.01,,SKC,0.01,VWS V14.01,2013-01-27 21:03:00,
2013-01-27 15:08:00,30.4,28.1,29.83,SE,144,5.0,9.0,91,0.01,,SKC,0.01,VWS V14.01,2013-01-27 21:08:00,
2013-01-27 15:13:00,30.4,28.1,29.83,SSE,152,5.0,8.0,91,0.01,,SKC,0.01,VWS V14.01,2013-01-27 21:13:00,
2013-01-27 15:18:00,30.4,28.1,29.83,SE,144,1.0,8.0,91,0.01,,SKC,0.01,VWS V14.01,2013-01-27 21:18:00,
2013-01-27 15:23:00,30.4,28.1,29.83,SE,133,6.0,7.0,91,0.01,,SKC,0.01,VWS V14.01,2013-01-27 21:23:00,
2013-01-27 15:28:00,30.4,28.4,29.83,SE,130,4.0,7.0,92,0.01,,SKC,0.01,VWS V14.01,2013-01-27 21:28:00,
2013-01-27 15:33:00,30.3,28.3,29.83,ESE,119,4.0,7.0,92,0.01,,SKC,0.01,VWS V14.01,2013-01-27 21:33:00,
2013-01-27 15:38:00,30.3,28.3,29.83,ESE,119,5.0,8.0,92,0.01,,SKC,0.01,VWS V14.01,2013-01-27 21:38:00,
2013-01-27 15:43:00,30.3,28.5,29.83,SSE,148,7.0,10.0,93,0.00,,SKC,0.01,VWS V14.01,2013-01-27 21:43:00,
2013-01-27 15:47:00,30.3,28.5,29.82,ESE,112,1.0,10.0,93,0.00,,SKC,0.01,VWS V14.01,2013-01-27 21:47:00,
2013-01-27 15:52:00,30.3,28.5,29.82,ESE,103,5.0,7.0,93,0.00,,SKC,0.01,VWS V14.01,2013-01-27 21:52:00,
2013-01-27 15:57:00,30.3,28.8,29.82,ESE,116,5.0,7.0,94,0.00,,SKC,0.01,VWS V14.01,2013-01-27 21:57:00,
2013-01-27 17:40:00,29.3,28.8,29.81,East,90,2.0,7.0,98,0.00,,SKC,0.01,VWS V14.01,2013-01-27 23:40:00,
2013-01-27 17:58:00,29.1,28.6,29.81,ESE,102,0.0,2.0,98,0.00,,SKC,0.01,VWS V14.01,2013-01-27 23:58:00,
2013-01-27 18:03:00,29.1,28.6,29.81,ESE,106,0.0,2.0,98,0.00,,SKC,0.01,VWS V14.01,2013-01-28 00:03:00,
2013-01-27 18:08:00,29.1,28.6,29.81,ESE,109,0.0,2.0,98,0.00,,SKC,0.01,VWS V14.01,2013-01-28 00:08:00,
2013-01-27 18:13:00,29.1,28.6,29.81,ESE,119,2.0,5.0,98,0.00,,SKC,0.01,VWS V14.01,2013-01-28 00:13:00,
2013-01-27 18:18:00,29.1,28.6,29.81,ESE,117,0.0,5.0,98,0.00,,SKC,0.01,VWS V14.01,2013-01-28 00:18:00,
2013-01-27 18:23:00,29.3,28.8,29.81,ESE,106,0.0,5.0,98,0.00,,SKC,0.01,VWS V14.01,2013-01-28 00:23:00,
2013-01-27 18:28:00,29.3,28.8,29.81,ESE,104,0.0,5.0,98,0.00,,SKC,0.01,VWS V14.01,2013-01-28 00:28:00,
2013-01-27 18:33:00,29.3,28.8,29.81,ESE,117,1.0,6.0,98,0.00,,SKC,0.01,VWS V14.01,2013-01-28 00:33:00,
2013-01-27 18:38:00,29.3,28.8,29.81,ESE,112,0.0,6.0,98,0.00,,SKC,0.01,VWS V14.01,2013-01-28 00:38:00,
2013-01-27 18:43:00,29.3,28.8,29.81,ESE,116,1.0,3.0,98,0.00,,SKC,0.01,VWS V14.01,2013-01-28 00:43:00,
2013-01-27 18:48:00,29.3,28.8,29.81,ESE,114,0.0,3.0,98,0.00,,SKC,0.01,VWS V14.01,2013-01-28 00:48:00,
2013-01-27 18:53:00,29.3,28.8,29.81,ESE,107,0.0,2.0,98,0.00,,SKC,0.01,VWS V14.01,2013-01-28 00:53:00,
2013-01-27 18:58:00,29.3,28.8,29.81,East,99,2.0,4.0,98,0.00,,SKC,0.01,VWS V14.01,2013-01-28 00:58:00,
2013-01-27 19:03:00,29.3,28.8,29.81,East,99,0.0,2.0,98,0.00,,SKC,0.01,VWS V14.01,2013-01-28 01:03:00,
2013-01-27 19:08:00,29.1,28.6,29.81,East,100,0.0,2.0,98,0.00,,SKC,0.01,VWS V14.01,2013-01-28 01:08:00,
2013-01-27 19:13:00,29.1,28.6,29.81,East,97,0.0,1.0,98,0.00,,SKC,0.01,VWS V14.01,2013-01-28 01:13:00,
2013-01-27 19:18:00,29.1,28.9,29.81,East,96,0.0,1.0,99,0.00,,SKC,0.01,VWS V14.01,2013-01-28 01:18:00,
2013-01-27 19:23:00,29.1,28.9,29.81,East,96,0.0,0.0,99,0.00,,SKC,0.01,VWS V14.01,2013-01-28 01:23:00,
2013-01-27 19:28:00,29.1,28.9,29.81,East,93,0.0,0.0,99,0.00,,SKC,0.01,VWS V14.01,2013-01-28 01:28:00,
2013-01-27 19:33:00,29.1,28.9,29.81,East,92,0.0,0.0,99,0.00,,SKC,0.01,VWS V14.01,2013-01-28 01:33:00,
2013-01-27 19:38:00,29.0,28.8,29.81,East,93,0.0,2.0,99,0.00,,SKC,0.01,VWS V14.01,2013-01-28 01:38:00,
2013-01-27 19:43:00,29.0,28.8,29.81,East,88,0.0,0.0,99,0.00,,SKC,0.01,VWS V14.01,2013-01-28 01:43:00,
2013-01-27 19:48:00,29.0,28.8,29.81,East,93,0.0,0.0,99,0.00,,SKC,0.01,VWS V14.01,2013-01-28 01:48:00,
2013-01-27 19:53:00,29.0,28.8,29.81,East,93,0.0,0.0,99,0.00,,SKC,0.01,VWS V14.01,2013-01-28 01:53:00,
2013-01-27 19:58:00,29.0,28.8,29.81,East,86,0.0,0.0,99,0.00,,SKC,0.01,VWS V14.01,2013-01-28 01:58:00,
2013-01-27 20:03:00,29.0,28.8,29.80,East,85,0.0,0.0,99,0.00,,SKC,0.01,VWS V14.01,2013-01-28 02:03:00,
2013-01-27 20:08:00,29.0,28.8,29.80,East,86,0.0,0.0,99,0.00,,SKC,0.01,VWS V14.01,2013-01-28 02:08:00,
2013-01-27 20:13:00,29.0,28.8,29.80,East,90,0.0,0.0,99,0.00,,SKC,0.01,VWS V14.01,2013-01-28 02:13:00,
2013-01-27 20:18:00,29.0,28.8,29.80,East,92,0.0,0.0,99,0.00,,SKC,0.01,VWS V14.01,2013-01-28 02:18:00,
2013-01-27 20:23:00,29.0,28.8,29.80,East,97,0.0,0.0,99,0.00,,SKC,0.01,VWS V14.01,2013-01-28 02:23:00,
2013-01-27 20:28:00,29.0,28.8,29.80,East,95,0.0,0.0,99,0.00,,SKC,0.01,VWS V14.01,2013-01-28 02:28:00,
2013-01-27 20:33:00,29.0,28.8,29.80,East,89,0.0,0.0,99,0.00,,SKC,0.01,VWS V14.01,2013-01-28 02:33:00,
2013-01-27 20:38:00,29.0,28.8,29.80,East,80,0.0,0.0,99,0.00,,SKC,0.01,VWS V14.01,2013-01-28 02:38:00,
2013-01-27 20:43:00,29.0,28.8,29.80,East,86,0.0,0.0,99,0.00,,SKC,0.01,VWS V14.01,2013-01-28 02:43:00,
2013-01-27 20:48:00,29.0,28.8,29.79,East,86,0.0,0.0,99,0.00,,SKC,0.01,VWS V14.01,2013-01-28 02:48:00,
2013-01-27 20:53:00,28.8,28.5,29.79,East,89,0.0,0.0,99,0.00,,SKC,0.01,VWS V14.01,2013-01-28 02:53:00,
2013-01-27 20:58:00,28.8,28.5,29.79,East,90,0.0,0.0,99,0.00,,SKC,0.01,VWS V14.01,2013-01-28 02:58:00,
2013-01-27 21:03:00,28.8,28.5,29.79,East,92,0.0,0.0,99,0.00,,SKC,0.01,VWS V14.01,2013-01-28 03:03:00,
2013-01-27 21:08:00,28.8,28.5,29.79,East,95,0.0,0.0,99,0.00,,SKC,0.01,VWS V14.01,2013-01-28 03:08:00,
2013-01-27 21:13:00,29.0,28.8,29.79,East,93,0.0,0.0,99,0.00,,SKC,0.01,VWS V14.01,2013-01-28 03:13:00,
2013-01-27 21:18:00,29.0,28.8,29.79,ESE,102,0.0,0.0,99,0.00,,SKC,0.01,VWS V14.01,2013-01-28 03:18:00,
2013-01-27 21:23:00,29.0,28.8,29.79,ESE,102,0.0,0.0,99,0.00,,SKC,0.01,VWS V14.01,2013-01-28 03:23:00,
2013-01-27 21:28:00,29.0,28.8,29.79,East,93,0.0,0.0,99,0.00,,SKC,0.01,VWS V14.01,2013-01-28 03:28:00,
2013-01-27 21:33:00,29.0,28.8,29.78,East,100,0.0,0.0,99,0.00,,SKC,0.01,VWS V14.01,2013-01-28 03:33:00,
2013-01-27 21:38:00,29.0,28.8,29.78,East,100,0.0,0.0,99,0.00,,SKC,0.01,VWS V14.01,2013-01-28 03:38:00,
2013-01-27 21:43:00,29.0,28.8,29.78,ESE,104,0.0,0.0,99,0.00,,SKC,0.01,VWS V14.01,2013-01-28 03:43:00,
2013-01-27 21:48:00,29.0,28.8,29.78,ESE,104,0.0,0.0,99,0.00,,SKC,0.01,VWS V14.01,2013-01-28 03:48:00,
2013-01-27 21:53:00,29.0,28.8,29.78,ESE,106,0.0,0.0,99,0.00,,SKC,0.01,VWS V14.01,2013-01-28 03:53:00,
2013-01-27 21:58:00,29.0,28.8,29.78,ESE,102,0.0,0.0,99,0.00,,SKC,0.01,VWS V14.01,2013-01-28 03:58:00,
2013-01-27 22:03:00,29.0,28.8,29.78,East,97,0.0,0.0,99,0.00,,SKC,0.01,VWS V14.01,2013-01-28 04:03:00,
2013-01-27 22:08:00,29.0,28.8,29.78,ESE,102,0.0,0.0,99,0.00,,SKC,0.01,VWS V14.01,2013-01-28 04:08:00,
2013-01-27 22:13:00,29.0,28.8,29.78,East,96,0.0,0.0,99,0.00,,SKC,0.01,VWS V14.01,2013-01-28 04:13:00,
2013-01-27 22:18:00,29.0,28.8,29.77,East,99,0.0,0.0,99,0.00,,SKC,0.01,VWS V14.01,2013-01-28 04:18:00,
2013-01-27 22:23:00,29.0,28.8,29.77,East,100,0.0,0.0,99,0.00,,SKC,0.01,VWS V14.01,2013-01-28 04:23:00,
2013-01-27 22:28:00,29.1,28.9,29.77,ESE,102,0.0,0.0,99,0.00,,SKC,0.01,VWS V14.01,2013-01-28 04:28:00,
2013-01-27 22:33:00,29.1,28.9,29.78,ESE,103,0.0,0.0,99,0.00,,SKC,0.01,VWS V14.01,2013-01-28 04:33:00,
2013-01-27 22:38:00,29.1,28.9,29.78,ESE,104,0.0,0.0,99,0.00,,SKC,0.01,VWS V14.01,2013-01-28 04:38:00,
2013-01-27 22:43:00,29.1,28.9,29.78,ESE,106,0.0,0.0,99,0.00,,SKC,0.01,VWS V14.01,2013-01-28 04:43:00,
2013-01-27 22:48:00,29.1,28.9,29.78,ESE,106,0.0,0.0,99,0.00,,SKC,0.01,VWS V14.01,2013-01-28 04:48:00,
2013-01-27 22:53:00,29.1,28.9,29.78,ESE,107,0.0,0.0,99,0.00,,SKC,0.01,VWS V14.01,2013-01-28 04:53:00,
2013-01-27 22:58:00,29.0,28.8,29.78,ESE,109,0.0,0.0,99,0.00,,SKC,0.01,VWS V14.01,2013-01-28 04:58:00,
2013-01-27 23:00:00,29.0,28.8,29.77,ESE,110,0.0,0.0,99,0.00,,SKC,0.01,VWS V14.01,2013-01-28 05:00:00,
2013-01-27 23:01:00,29.0,28.8,29.77,ESE,107,0.0,0.0,99,0.00,,SKC,0.01,VWS V14.01,2013-01-28 05:01:00,
2013-01-27 23:06:00,29.0,28.8,29.77,ESE,119,0.0,0.0,99,0.00,,SKC,0.01,VWS V14.01,2013-01-28 05:06:00,
2013-01-27 23:11:00,29.0,28.8,29.77,ESE,120,0.0,0.0,99,0.00,,SKC,0.01,VWS V14.01,2013-01-28 05:11:00,
2013-01-27 23:16:00,29.0,28.8,29.77,ESE,116,0.0,0.0,99,0.00,,SKC,0.01,VWS V14.01,2013-01-28 05:16:00,
2013-01-27 23:21:00,29.0,28.8,29.77,ESE,107,0.0,0.0,99,0.00,,SKC,0.01,VWS V14.01,2013-01-28 05:21:00,
2013-01-27 23:26:00,29.0,28.8,29.77,ESE,109,0.0,0.0,99,0.00,,SKC,0.01,VWS V14.01,2013-01-28 05:26:00,
2013-01-27 23:31:00,29.0,28.8,29.77,ESE,107,0.0,0.0,99,0.00,,SKC,0.01,VWS V14.01,2013-01-28 05:31:00,
2013-01-27 23:36:00,28.8,28.5,29.77,ESE,106,0.0,0.0,99,0.00,,SKC,0.01,VWS V14.01,2013-01-28 05:36:00,
2013-01-27 23:41:00,28.7,28.5,29.77,ESE,106,0.0,0.0,99,0.00,,SKC,0.01,VWS V14.01,2013-01-28 05:41:00,
2013-01-27 23:46:00,28.7,28.5,29.77,East,100,0.0,0.0,99,0.00,,SKC,0.01,VWS V14.01,2013-01-28 05:46:00,
2013-01-27 23:51:00,28.5,28.2,29.77,East,93,0.0,0.0,99,0.00,,SKC,0.01,VWS V14.01,2013-01-28 05:51:00,
2013-01-27 23:56:00,28.5,28.2,29.77,East,90,0.0,0.0,99,0.00,,SKC,0.01,VWS V14.01,2013-01-28 05:56:00,